Location: Bühlhof
(48.7849°N, 8.6361°E)
Time: 07:26:34
(UTC+00:00)

YAOGAN 1 - Pass Details

Date: 19 January 2026
Orbit: 605 x 607 km, 97.8° (Epoch: 18 February)

Event Time Altitude Azimuth Distance (km) Brightness Sun altitude
Rises 17:19:12 0° 151° (SSE) 2,854 5.8 -12.4°
Reaches altitude 10° 17:21:24 10° 147° (SSE) 1,954 5.0 -12.7°
Maximum altitude 17:25:32 52° 71° (ENE) 762 2.6 -13.4°
Drops below altitude 10° 17:29:41 10° 356° (N) 1,969 5.0 -14.0°
Sets 17:31:54 0° 351° (N) 2,877 5.9 -14.4°
